TimeCDT,TemperatureF,Dew PointF,Humidity,Sea Level PressureIn,VisibilityMPH,Wind Direction,Wind SpeedMPH,Gust SpeedMPH,PrecipitationIn,Events,Conditions,WindDirDegrees,DateUTC
12:15 AM,33.8,33.8,100,29.78,0.2,West,6.9,-,N/A,Fog,Fog,260,2013-03-31 05:15:00
12:35 AM,32.0,32.0,100,29.78,0.2,WSW,6.9,-,N/A,Fog,Fog,250,2013-03-31 05:35:00
12:55 AM,32.0,32.0,100,29.77,0.2,SW,6.9,-,N/A,Fog,Fog,230,2013-03-31 05:55:00
1:15 AM,32.0,32.0,100,29.77,0.2,WSW,6.9,-,N/A,Fog,Fog,240,2013-03-31 06:15:00
1:35 AM,33.8,33.8,100,29.76,0.2,WSW,8.1,-,N/A,Fog,Fog,240,2013-03-31 06:35:00
1:55 AM,33.8,33.8,100,29.76,0.2,WSW,5.8,-,N/A,Fog,Fog,240,2013-03-31 06:55:00
2:15 AM,33.8,33.8,100,29.75,0.2,WSW,8.1,-,N/A,Fog,Fog,250,2013-03-31 07:15:00
2:35 AM,33.8,33.8,100,29.74,0.2,WSW,6.9,-,N/A,Fog,Fog,250,2013-03-31 07:35:00
2:55 AM,33.8,33.8,100,29.74,0.2,WSW,8.1,-,N/A,Fog,Fog,250,2013-03-31 07:55:00
3:15 AM,32.0,32.0,100,29.74,0.2,West,9.2,-,N/A,Fog,Fog,270,2013-03-31 08:15:00
3:35 AM,33.8,33.8,100,29.74,0.5,West,9.2,-,N/A,Fog,Fog,260,2013-03-31 08:35:00
3:55 AM,33.8,33.8,100,29.72,1.5,West,9.2,-,N/A,,Overcast,270,2013-03-31 08:55:00
4:15 AM,32.0,32.0,100,29.72,2.0,West,9.2,-,N/A,,Overcast,270,2013-03-31 09:15:00
4:35 AM,32.0,32.0,100,29.71,1.5,West,8.1,-,N/A,,Overcast,270,2013-03-31 09:35:00
4:55 AM,32.0,32.0,100,29.71,1.8,West,9.2,-,N/A,,Overcast,270,2013-03-31 09:55:00
5:15 AM,32.0,32.0,100,29.71,2.0,West,11.5,-,N/A,,Overcast,270,2013-03-31 10:15:00
5:35 AM,32.0,32.0,100,29.71,2.0,West,13.8,-,N/A,,Overcast,280,2013-03-31 10:35:00
5:45 AM,32.0,32.0,100,29.71,2.0,West,10.4,-,N/A,,Overcast,270,2013-03-31 10:45:00
6:45 AM,32.0,32.0,100,29.71,3.0,West,12.7,-,N/A,,Overcast,270,2013-03-31 11:45:00
7:45 AM,32.0,32.0,100,29.70,3.0,West,6.9,-,N/A,,Scattered Clouds,260,2013-03-31 12:45:00
8:45 AM,33.8,33.8,100,29.69,4.0,West,9.2,-,N/A,,Mostly Cloudy,260,2013-03-31 13:45:00
10:45 AM,35.6,33.8,93,29.68,10.0,WSW,15.0,-,N/A,,Clear,250,2013-03-31 15:45:00
11:45 AM,35.6,32.0,87,29.69,7.0,West,18.4,23.0,N/A,,Overcast,270,2013-03-31 16:45:00
12:45 PM,33.8,30.2,87,29.69,5.0,West,12.7,23.0,N/A,,Overcast,270,2013-03-31 17:45:00
1:45 PM,35.6,30.2,81,29.69,7.0,West,18.4,24.2,N/A,,Overcast,260,2013-03-31 18:45:00
2:45 PM,35.6,28.4,75,29.69,0.5,West,20.7,25.3,N/A,Snow,Light Snow,280,2013-03-31 19:45:00
3:05 PM,33.8,30.2,87,29.70,10.0,NW,12.7,23.0,N/A,Snow,Light Snow,310,2013-03-31 20:05:00
3:45 PM,35.6,28.4,75,29.70,10.0,WNW,19.6,25.3,N/A,,Mostly Cloudy,290,2013-03-31 20:45:00
4:50 PM,35.6,19.4,52,29.72,10.0,NW,21.9,28.8,N/A,,Scattered Clouds,320,2013-03-31 21:50:00
5:45 PM,35.6,17.6,48,29.75,10.0,NW,17.3,27.6,N/A,,Scattered Clouds,310,2013-03-31 22:45:00
8:45 PM,30.2,17.6,60,29.84,10.0,NW,12.7,-,N/A,,Scattered Clouds,320,2013-04-01 01:45:00
9:45 PM,28.4,17.6,64,29.87,10.0,NNW,12.7,17.3,N/A,,Mostly Cloudy,340,2013-04-01 02:45:00
10:15 PM,30.2,19.4,64,29.88,10.0,North,11.5,-,N/A,,Mostly Cloudy,350,2013-04-01 03:15:00
10:35 PM,30.2,19.4,64,29.89,10.0,NNW,15.0,21.9,N/A,,Mostly Cloudy,340,2013-04-01 03:35:00
10:55 PM,28.4,17.6,64,29.89,10.0,NNW,15.0,-,N/A,,Mostly Cloudy,340,2013-04-01 03:55:00
11:15 PM,28.4,17.6,64,29.90,10.0,NNW,13.8,-,N/A,,Mostly Cloudy,330,2013-04-01 04:15:00
11:55 PM,28.4,15.8,59,29.91,10.0,NNW,16.1,-,N/A,,Mostly Cloudy,330,2013-04-01 04:55:00